Theta_e
327 316 314 310 301 299 296 303 309 311 319 326 328 325 323 329 325 310 340 349 353 356 360 361 362 363 363 362 361 361 360 360 360 360 361 361 361 361 361 359 360 360 358 357 354 353 353 352 351
326 317 310 304 296 292 295 306 306 309 325 329 328 329 326 323 334 342 344 352 353 356 358 359 363 362 363 362 361 360 360 360 360 360 361 361 362 362 361 360 359 358 355 354 353 353 353 352 351
320 316 303 299 295 293 296 307 308 312 328 329 330 333 330 329 342 343 350 351 352 354 356 359 363 363 363 362 360 360 360 360 360 360 361 361 361 362 361 360 358 356 352 351 353 353 353 352 351
310 306 303 296 295 300 303 309 310 311 318 330 331 327 331 338 342 347 352 352 351 352 356 363 363 363 363 362 361 360 360 360 360 361 361 361 361 361 359 359 358 357 353 352 352 353 353 351 351
307 301 294 293 297 302 308 312 311 312 316 328 328 323 326 333 349 351 351 351 349 352 357 361 363 363 363 362 361 360 360 359 359 360 361 361 360 359 359 358 358 357 354 352 353 354 355 354 353
302 299 291 291 296 304 308 312 312 313 317 320 327 324 325 344 346 350 350 348 352 353 357 360 363 363 362 362 361 360 359 359 360 360 360 360 359 359 358 358 358 357 356 355 353 354 354 353 352
298 296 291 293 297 300 306 312 310 309 312 313 328 326 330 338 347 349 348 351 353 354 355 357 359 361 362 361 360 360 359 359 359 359 359 359 358 358 358 357 357 356 355 354 354 353 353 352 351
301 297 293 294 296 298 307 311 311 309 312 328 339 326 326 336 341 346 350 350 348 350 353 354 357 359 358 358 361 360 359 359 359 358 358 358 358 358 357 355 355 356 354 354 353 352 351 350 349
303 291 290 294 297 300 306 308 312 315 315 326 335 336 338 342 346 346 345 344 345 346 346 348 351 353 355 355 359 360 360 360 359 359 358 354 350 351 353 353 354 355 354 353 353 352 351 349 348
298 291 293 300 303 303 306 306 308 310 311 312 332 335 338 341 343 337 336 339 340 341 343 346 346 348 350 356 355 354 355 355 354 353 352 348 345 345 349 352 355 355 355 353 352 351 350 349 339
298 293 299 303 307 305 303 306 309 310 307 311 320 330 333 336 334 334 338 339 342 345 342 343 343 344 344 348 351 350 349 350 350 349 348 343 344 341 345 342 344 346 352 345 347 344 343 339 336
295 301 303 304 306 305 304 308 308 309 310 316 316 333 331 333 335 332 336 339 340 342 344 343 342 341 338 346 347 344 346 345 345 344 344 341 337 335 338 338 340 341 342 341 338 338 337 337 336
296 301 304 305 305 304 309 307 308 309 315 316 316 324 329 329 330 336 339 341 340 338 338 340 341 339 338 342 340 340 342 342 342 340 342 341 336 335 336 338 340 341 339 339 337 335 335 334 334
299 301 303 304 303 304 307 308 308 312 315 315 315 315 326 328 331 336 336 339 341 341 337 340 340 338 343 341 338 339 341 341 341 341 341 342 338 335 335 337 339 339 339 339 338 336 333 334 336
300 296 300 303 302 302 308 305 308 312 314 313 314 314 315 323 333 334 337 339 341 342 343 342 342 341 335 344 344 340 341 343 341 342 341 344 342 340 336 336 338 340 340 339 337 337 338 338 339
295 294 292 301 303 308 307 299 309 313 312 312 313 314 315 312 315 333 338 340 342 341 339 341 345 339 336 335 349 348 344 344 343 343 342 343 344 343 342 342 341 345 342 343 342 341 340 340 341
290 288 290 295 304 307 304 300 308 313 312 311 311 312 314 312 316 328 338 337 338 339 337 336 339 333 333 339 342 353 352 348 347 346 346 344 344 345 345 346 348 347 345 346 346 343 340 338 340
286 288 290 293 300 303 301 302 307 310 309 308 309 312 313 311 314 331 334 335 335 335 338 337 335 333 337 344 350 352 352 351 352 350 348 350 346 345 347 348 348 344 343 344 344 342 342 343 343
292 291 291 298 303 302 300 302 307 310 307 306 307 309 309 310 313 318 328 331 331 330 329 328 330 331 335 339 349 348 349 348 349 352 352 351 351 349 349 348 345 343 342 340 339 340 342 340 335
293 290 290 296 305 303 301 301 306 308 307 306 307 308 308 309 312 319 321 321 321 323 327 325 327 330 332 338 347 349 347 348 350 349 348 349 349 351 350 346 342 341 342 341 341 342 339 338 336
292 290 290 296 301 302 301 298 301 305 306 305 306 308 308 309 308 318 320 321 324 323 323 324 325 328 330 338 344 342 344 341 340 341 343 347 350 349 337 335 339 342 340 341 337 338 338 336 333
289 295 295 298 295 291 299 287 294 299 299 300 301 302 306 308 311 317 322 328 331 332 336 336 336 337 338 339 335 337 337 334 336 338 342 345 342 337 338 338 340 339 340 338 334 333 335 337 333
292 296 294 296 294 291 292 287 289 298 297 298 300 301 304 307 315 319 327 330 332 334 331 330 328 327 329 330 330 331 333 337 332 329 334 337 337 333 335 332 334 338 339 339 337 335 337 339 336
298 293 297 295 293 287 291 290 288 290 296 299 299 301 305 308 315 324 328 329 328 328 326 325 325 324 325 325 325 325 326 325 326 325 323 324 328 334 331 328 330 338 340 338 336 336 334 336 331
295 289 285 285 284 284 291 287 292 294 299 301 300 302 306 314 317 318 320 323 322 321 321 320 319 319 321 321 320 321 320 321 321 323 323 322 322 324 327 330 330 332 333 333 331 330 330 328 326
289 292 285 280 281 283 291 288 292 299 301 301 304 305 311 313 314 315 316 317 318 317 318 318 317 316 316 318 316 318 318 317 318 318 318 319 321 320 322 324 324 326 329 330 329 326 327 327 328
290 288 293 288 288 283 288 294 299 305 302 302 305 308 310 312 312 313 313 315 316 316 316 316 315 315 314 313 313 313 313 313 314 314 315 316 317 321 320 322 322 322 324 325 326 327 326 324 323
293 296 290 288 280 279 287 290 290 298 302 301 304 305 305 308 309 310 313 314 314 315 316 314 314 313 313 312 313 312 312 312 312 312 313 313 314 314 316 316 316 315 316 317 317 318 323 325 326
291 290 290 291 290 284 281 287 301 299 303 300 303 305 305 305 309 312 312 312 312 313 311 310 310 312 310 310 309 311 311 311 311 311 311 311 311 311 313 314 313 313 313 313 311 311 314 316 318
295 292 291 287 288 291 290 289 306 305 306 304 305 307 304 305 306 308 310 312 312 311 309 309 307 308 308 308 307 308 309 309 308 308 308 309 309 310 310 311 311 312 311 309 309 309 310 310 310
Wind_Speed
8 8 2 4 5 5 4 5 2 4 5 5 18 12 15 4 5 6 3 15 18 16 13 14 18 18 17 16 15 15 15 15 15 14 15 15 14 14 12 12 11 11 12 11 12 11 10 8 6
5 6 4 2 5 2 5 6 7 5 7 10 10 3 9 8 3 10 13 13 19 16 13 13 19 18 18 17 15 15 15 15 15 14 14 14 13 13 12 12 10 10 11 10 11 10 8 7 5
5 2 3 3 3 6 5 5 5 11 10 15 7 3 4 3 10 19 17 21 15 14 10 12 18 20 18 18 17 16 15 14 14 15 14 13 13 12 11 11 10 9 9 10 10 9 8 6 4
2 5 4 4 9 6 3 12 9 9 5 4 6 4 5 2 7 6 19 28 19 11 10 15 17 17 18 18 17 16 16 15 14 13 13 12 12 11 10 10 9 8 8 9 9 8 7 5 3
3 3 1 2 10 3 8 8 8 16 4 6 10 4 5 8 10 23 18 19 20 14 9 10 16 17 17 16 15 15 15 15 15 14 13 11 11 10 9 9 8 8 7 7 8 7 6 5 4
2 3 3 4 10 4 8 10 10 12 8 3 6 7 3 8 14 12 14 12 12 15 9 9 13 15 15 16 14 14 13 13 12 13 13 11 9 9 9 8 8 8 8 7 7 6 6 5 4
5 4 5 5 4 5 4 5 5 7 7 7 12 6 2 12 4 14 13 12 11 12 10 7 8 10 13 14 14 13 12 12 11 11 11 11 11 9 9 7 7 7 7 7 7 6 5 6 5
4 4 3 5 4 7 6 4 2 6 9 13 6 7 6 2 1 10 13 11 9 7 7 6 7 7 6 7 12 12 12 12 12 12 11 11 10 10 9 8 7 7 7 7 7 6 6 6 6
3 3 5 6 5 6 8 7 2 5 19 16 12 7 4 5 18 15 11 11 9 7 6 5 4 6 7 5 8 10 13 12 12 11 10 9 5 6 8 7 8 8 8 8 8 8 8 7 9
5 5 8 5 2 5 8 2 2 6 15 16 11 11 5 3 16 17 12 9 8 3 8 8 7 6 6 7 6 4 5 4 4 5 6 4 5 5 6 8 10 11 10 10 10 9 9 8 4
4 6 5 4 3 2 5 1 1 6 9 6 7 4 7 4 12 14 13 10 5 3 2 4 7 5 5 4 4 3 2 3 3 6 5 4 4 4 3 3 3 4 10 4 6 5 4 6 4
2 5 6 4 3 5 4 5 4 6 7 8 6 5 5 6 9 11 9 9 9 10 4 2 3 5 4 3 5 5 4 4 4 5 6 5 3 4 4 3 4 4 4 5 4 3 4 6 6
5 5 7 3 7 7 5 1 4 5 7 12 6 5 6 6 9 6 3 10 10 14 9 9 5 6 4 4 3 4 6 6 7 6 7 6 5 5 4 5 4 5 3 4 4 4 4 5 6
4 12 18 3 9 6 6 3 4 3 6 7 6 9 8 10 6 1 4 4 9 13 13 10 11 10 7 6 5 5 5 6 5 6 8 9 7 6 5 5 5 5 5 5 5 6 5 6 5
10 6 12 9 7 7 5 4 6 4 5 6 6 6 11 7 12 14 11 11 16 16 18 11 5 14 8 7 8 6 6 5 6 7 8 10 8 7 7 6 5 7 5 7 4 4 4 4 5
8 4 11 15 7 7 11 14 5 6 6 3 6 6 9 11 9 17 13 10 10 16 22 30 23 13 11 9 10 9 9 7 7 7 7 10 10 8 8 6 6 5 4 4 4 4 5 5 5
3 9 9 14 9 4 4 3 5 5 5 2 3 7 8 8 8 10 15 12 12 11 17 19 22 24 19 17 10 9 9 8 9 8 7 11 12 11 8 8 5 5 3 4 4 4 4 4 3
8 9 3 14 5 3 4 3 3 1 4 7 4 5 8 2 4 13 18 12 11 11 15 15 17 16 5 5 6 4 4 5 6 7 8 10 10 13 10 7 5 4 3 4 2 2 2 3 4
1 4 9 3 9 6 7 6 6 8 2 6 6 6 5 4 3 7 11 13 11 6 5 8 9 10 3 2 4 3 7 4 4 5 8 9 10 10 8 7 4 4 4 4 3 3 5 3 2
8 6 7 7 7 6 6 9 8 9 7 7 8 7 7 3 5 4 10 11 12 12 9 6 7 8 8 7 4 3 2 3 5 4 5 5 7 8 10 7 5 5 3 4 5 4 3 3 4
10 9 6 4 7 4 7 5 7 6 5 5 8 6 5 9 8 8 7 8 10 9 9 7 5 8 6 6 2 2 2 2 2 2 4 5 10 6 4 5 4 6 5 6 6 3 5 4 2
13 6 11 8 4 5 7 6 7 7 11 8 11 8 8 7 2 6 8 8 11 9 9 9 7 5 2 2 2 3 3 2 1 2 3 4 3 6 8 8 5 5 3 4 5 3 2 0 4
9 8 9 9 7 4 2 3 8 10 13 13 13 9 8 9 9 10 10 10 8 10 10 10 10 9 8 9 7 5 5 4 4 4 7 6 4 4 2 4 4 2 2 6 5 5 4 5 6
14 4 4 2 4 6 9 8 7 7 18 16 7 9 10 9 7 10 10 10 9 9 11 10 12 8 7 7 8 10 9 6 5 5 5 4 3 3 4 7 6 3 3 5 5 5 6 8 3
4 6 1 1 3 6 11 5 13 8 13 16 15 10 8 14 10 12 12 10 8 10 11 9 10 8 7 9 9 8 8 8 8 6 5 6 5 5 7 6 6 3 2 2 4 5 6 5 4
7 8 6 5 2 7 2 7 15 10 14 6 9 8 15 13 12 12 12 11 11 11 9 9 8 7 8 7 7 7 7 5 4 5 4 4 3 3 5 5 5 5 5 5 6 4 3 4 4
5 5 10 7 1 3 3 6 8 14 16 12 13 15 15 15 12 12 9 10 10 9 8 8 8 7 7 7 6 6 6 7 5 6 4 3 4 5 7 7 7 7 7 6 4 4 6 5 5
11 8 6 3 3 4 1 4 6 10 18 9 18 18 11 8 9 8 9 9 6 8 7 7 7 7 5 6 5 5 5 6 6 4 6 5 3 4 5 6 6 7 7 7 7 5 5 5 4
3 4 6 5 5 6 3 6 4 7 13 5 5 13 12 10 11 11 7 6 8 8 8 7 7 7 6 6 5 6 5 6 7 6 6 6 6 6 6 5 5 5 5 6 7 7 6 6 6
6 9 8 6 3 2 2 5 4 6 11 7 4 10 7 9 8 8 8 8 8 7 7 7 6 8 7 6 6 5 5 6 6 6 6 6 6 7 7 6 6 6 5 5 5 6 6 6 7
Wind_Direction
320 309 298 26 48 69 262 267 251 257 211 271 175 151 212 229 180 191 189 157 137 151 161 158 151 145 141 139 137 134 134 132 130 128 126 123 123 121 121 119 121 120 119 121 119 119 117 113 107
324 317 31 70 91 80 270 244 266 250 167 115 166 295 185 224 115 130 119 152 149 149 158 160 154 148 145 144 144 144 143 139 137 135 133 131 133 133 133 129 129 124 128 129 126 125 125 121 110
298 191 70 117 155 194 201 242 300 309 160 129 154 238 301 222 136 165 143 142 141 151 159 161 156 152 151 151 152 151 149 146 145 141 142 144 145 143 139 136 133 134 141 138 133 133 130 125 117
336 7 13 108 241 256 230 282 299 295 239 78 132 172 264 218 181 123 147 139 146 153 159 158 155 156 154 157 157 157 153 151 149 146 149 154 154 149 146 142 139 145 150 144 140 139 139 141 155
42 66 89 192 257 244 276 277 291 292 173 142 158 204 283 7 97 129 145 142 146 146 146 154 153 153 155 158 157 158 156 156 154 152 154 159 158 157 158 151 150 154 157 154 153 158 161 172 187
345 110 91 222 257 316 285 299 280 269 334 158 123 95 38 94 105 115 125 138 134 136 140 150 152 149 153 156 157 159 158 156 156 155 155 157 163 166 168 167 166 168 163 166 172 176 181 200 218
155 107 210 216 258 311 272 325 34 332 13 354 129 89 54 83 110 131 134 131 131 137 132 134 138 148 154 157 154 158 155 155 158 159 161 163 167 177 177 184 183 183 173 179 190 195 204 220 234
138 112 224 238 166 267 254 316 185 28 20 332 40 151 174 128 64 124 122 107 101 101 86 89 123 141 143 151 153 157 157 162 166 168 170 168 177 181 184 195 203 200 193 197 207 212 223 237 246
135 91 229 240 149 258 303 271 299 103 51 39 2 27 51 135 101 96 87 88 91 99 97 98 112 138 151 138 161 162 167 170 171 172 176 173 175 189 188 196 218 220 214 211 216 218 227 238 250
140 157 222 227 254 312 289 266 116 67 42 27 46 1 354 42 94 73 68 77 35 9 159 162 157 164 158 164 167 156 171 167 163 177 183 180 191 187 192 201 216 229 226 223 225 226 230 237 237
199 184 220 256 224 302 297 248 315 120 63 63 58 281 312 40 85 79 82 75 52 216 195 190 157 170 180 153 159 168 147 173 187 186 187 189 199 210 204 206 219 220 231 224 231 238 228 231 233
207 220 213 256 274 325 327 304 46 77 142 101 55 172 335 251 168 140 121 99 63 43 85 7 273 195 199 145 182 171 173 189 200 208 197 182 204 210 209 210 220 221 222 218 227 235 248 251 246
217 269 267 256 256 257 264 320 155 147 125 120 111 131 160 270 309 43 149 134 111 80 60 19 343 297 235 196 224 196 198 200 206 196 207 188 198 210 202 215 207 223 209 212 223 228 239 247 250
191 230 265 251 253 241 225 192 71 241 25 35 84 146 181 192 197 92 210 150 105 105 77 55 5 324 337 288 208 218 219 217 205 202 211 206 202 210 203 208 215 220 203 219 210 219 214 232 224
251 284 291 241 231 236 197 242 213 163 73 24 11 326 155 183 173 195 190 151 139 126 116 80 310 268 272 273 237 203 221 216 216 210 209 211 212 207 208 211 208 216 210 223 214 214 232 232 223
183 138 243 256 190 240 168 244 244 127 91 31 325 324 312 144 199 188 176 139 168 154 162 168 191 233 234 231 237 219 208 202 216 223 207 205 214 213 213 216 222 202 192 208 227 224 217 229 210
204 214 218 271 187 172 169 228 257 299 77 327 322 302 294 54 26 157 156 164 171 168 166 178 184 202 215 223 209 212 202 205 213 218 210 210 208 217 216 226 210 202 202 198 195 201 193 211 234
187 188 185 233 191 149 168 184 244 150 87 309 288 241 269 41 84 154 158 171 176 193 191 180 197 214 295 311 226 207 210 215 202 205 209 208 213 212 214 225 213 191 190 228 206 206 243 207 201
292 181 210 237 198 153 194 185 195 253 236 250 258 249 238 273 188 140 152 159 176 192 201 201 191 236 280 291 271 228 219 214 235 226 209 192 204 208 199 212 197 208 205 254 249 194 244 290 344
235 229 237 219 230 149 174 196 195 233 254 238 247 207 211 191 138 169 138 141 166 183 200 205 222 238 261 262 243 246 201 233 231 244 251 201 200 208 203 198 198 209 192 234 230 189 216 219 179
229 223 220 198 207 220 148 260 230 240 243 231 255 254 215 207 204 189 130 125 117 115 143 159 207 235 239 227 217 260 332 339 314 290 273 229 193 192 119 146 180 207 194 224 224 213 186 254 295
232 184 231 220 170 213 163 243 247 220 240 207 232 216 233 225 221 160 131 114 115 130 124 109 103 100 40 23 148 185 165 181 307 314 303 286 164 163 164 190 217 229 193 235 234 194 176 129 249
227 211 221 224 222 111 267 125 257 234 250 238 229 213 213 213 159 143 122 119 111 100 96 92 86 63 52 58 60 70 57 44 49 8 27 23 47 24 304 318 281 312 196 232 221 234 205 232 226
222 196 57 279 223 218 213 182 252 195 220 238 219 215 195 142 151 115 120 117 106 97 86 77 69 51 48 59 55 70 69 44 53 12 51 14 14 8 298 287 285 297 245 218 240 227 215 222 256
191 113 232 263 138 209 223 168 233 221 223 217 207 195 169 133 138 129 124 118 119 103 87 80 76 59 47 43 44 50 60 59 56 41 16 15 13 6 5 8 328 319 261 194 232 230 213 210 190
191 147 151 152 205 223 287 204 247 246 240 201 161 154 139 144 145 139 137 129 112 101 103 103 101 88 67 60 57 56 56 59 65 58 33 25 21 353 352 3 14 9 341 292 265 270 251 226 228
162 152 179 117 6 67 261 298 324 4 351 148 143 135 142 145 145 138 132 124 121 120 121 118 108 97 87 87 73 56 58 55 52 48 47 37 7 357 360 3 6 3 360 340 329 297 300 285 259
153 172 102 11 155 216 281 278 249 353 344 242 153 146 142 152 124 130 134 139 127 124 126 122 127 122 123 93 74 63 41 44 41 39 32 17 5 1 353 353 352 346 344 341 360 345 327 321 303
143 123 66 99 144 180 159 262 208 351 332 281 185 141 141 143 144 154 159 114 119 123 127 136 128 126 102 89 72 67 48 39 32 20 4 350 339 343 331 318 308 311 312 322 331 325 311 320 303
152 175 135 123 175 101 169 265 307 1 317 60 92 127 120 142 152 135 135 131 135 143 158 149 119 123 130 124 97 75 63 44 27 359 338 333 322 311 300 301 302 296 284 273 277 289 303 301 313